Tunica, MS

10:28 AM CDT on August 30, 2016 (GMT -0500)
Tunica

Weather History for KUTA - March, 2013

Change the Weather History Date:

Saturday, March 16, 2013

  Actual Average (KMEM) Record (KMEM)
Temperature  
Mean Temperature 65 °F 54 °F  
Max Temperature 75 °F 64 °F 82 °F (1945)
Min Temperature 55 °F 44 °F 24 °F (1900)
Degree Days  
Heating Degree Days 0 11  
Month to date heating degree days 217  
Since 1 July heating degree days 2667  
Cooling Degree Days 0 1  
Month to date cooling degree days 1  
Year to date cooling degree days 4  
Growing Degree Days 15 (Base 50)    
Moisture  
Dew Point 52 °F    
Average Humidity 66    
Maximum Humidity 88    
Minimum Humidity 47    
Precipitation  
Precipitation 0.00 in 0.17 in 9.30 in (1919)
Month to date precipitation 2.55  
Year to date precipitation 10.92  
Snow  
Snow 0.00 in 0.00 in T in (1951)
Month to date snowfall 0.3  
Since 1 July snowfall 3.7  
Snow Depth -    
Sea Level Pressure  
Sea Level Pressure 29.90 in    
Wind  
Wind Speed 13 mph (SSW)    
Max Wind Speed 22 mph    
Max Gust Speed 28 mph    
Visibility 10 miles    
Events      
T = Trace of Precipitation, MM = Missing Value Source: NWS Daily Summary

Daily Weather History Graph

Daily Weather History Graph

Search for Another Location

Airport or City:

Trip Planner

Search our weather history database for the weather conditions in past years. The results will help you decide how hot, cold, wet, or windy it might be!

Date:

Astronomy

Mar. 16, 2013 Rise Set
Actual Time 7:10 AM CDT 7:10 PM CDT
Civil Twilight 6:45 AM CDT 7:35 PM CDT
Nautical Twilight 6:15 AM CDT 8:04 PM CDT
Astronomical Twilight 5:46 AM CDT 8:34 PM CDT
Moon 9:52 AM CDT (3/16) No Moon Set
Length of Visible Light 12h 50m
Length of Day
11h 59m
Waxing Crescent, 23% of the Moon is Illuminated
Mar 16
Waxing Crescent
Mar 19
First Quarter
Mar 27
Full
Apr 2
Last Quarter
Apr 10
New

Hourly Weather History & Observations

Time (CDT) Temp. Dew Point Humidity Pressure Visibility Wind Dir Wind Speed Gust Speed Precip Events Conditions
12:15 AM 60.8 °F 46.4 °F 59% 29.93 in 10.0 mi South 11.5 mph 16.1 mph N/A   Clear
12:55 AM 60.8 °F 46.4 °F 59% 29.92 in 10.0 mi South 12.7 mph 18.4 mph N/A   Clear
1:15 AM 60.8 °F 46.4 °F 59% 29.92 in 10.0 mi South 13.8 mph - N/A   Clear
1:35 AM 59.0 °F 48.2 °F 67% 29.92 in 10.0 mi South 11.5 mph - N/A   Clear
1:55 AM 59.0 °F 48.2 °F 67% 29.92 in 10.0 mi South 11.5 mph - N/A   Clear
2:15 AM 59.0 °F 50.0 °F 72% 29.92 in 10.0 mi South 12.7 mph - N/A   Clear
2:35 AM 59.0 °F 50.0 °F 72% 29.92 in 10.0 mi South 12.7 mph - N/A   Clear
2:55 AM 59.0 °F 50.0 °F 72% 29.91 in 10.0 mi South 13.8 mph - N/A   Clear
3:15 AM 57.2 °F 50.0 °F 77% 29.90 in 10.0 mi South 12.7 mph - N/A   Clear
3:55 AM 57.2 °F 50.0 °F 77% 29.90 in 10.0 mi South 13.8 mph - N/A   Clear
4:15 AM 57.2 °F 50.0 °F 77% 29.90 in 10.0 mi South 11.5 mph - N/A   Clear
4:35 AM 57.2 °F 50.0 °F 77% 29.90 in 10.0 mi South 12.7 mph - N/A   Clear
4:55 AM 57.2 °F 50.0 °F 77% 29.91 in 10.0 mi South 13.8 mph - N/A   Clear
5:15 AM 57.2 °F 50.0 °F 77% 29.91 in 10.0 mi South 15.0 mph 19.6 mph N/A   Clear
5:35 AM 55.4 °F 51.8 °F 88% 29.91 in 10.0 mi South 13.8 mph - N/A   Clear
5:55 AM 55.4 °F 51.8 °F 88% 29.91 in 10.0 mi South 13.8 mph 20.7 mph N/A   Clear
6:15 AM 55.4 °F 51.8 °F 88% 29.92 in 10.0 mi South 11.5 mph - N/A   Clear
6:35 AM 55.4 °F 50.0 °F 82% 29.93 in 10.0 mi South 11.5 mph - N/A   Clear
6:55 AM 55.4 °F 50.0 °F 82% 29.93 in 10.0 mi South 12.7 mph - N/A   Clear
7:15 AM 55.4 °F 50.0 °F 82% 29.93 in 10.0 mi South 12.7 mph - N/A   Clear
7:35 AM 55.4 °F 50.0 °F 82% 29.93 in 10.0 mi South 10.4 mph - N/A   Clear
7:55 AM 55.4 °F 50.0 °F 82% 29.94 in 10.0 mi South 11.5 mph - N/A   Clear
8:15 AM 55.4 °F 51.8 °F 88% 29.95 in 10.0 mi South 13.8 mph 18.4 mph N/A   Clear
8:35 AM 57.2 °F 51.8 °F 82% 29.95 in 10.0 mi SSW 15.0 mph - N/A   Clear
8:55 AM 59.0 °F 51.8 °F 77% 29.95 in 10.0 mi SSW 15.0 mph 19.6 mph N/A   Clear
9:15 AM 60.8 °F 53.6 °F 77% 29.95 in 10.0 mi SSW 17.3 mph - N/A   Clear
9:35 AM 60.8 °F 53.6 °F 77% 29.95 in 10.0 mi SW 19.6 mph 24.2 mph N/A   Clear
9:55 AM 60.8 °F 53.6 °F 77% 29.96 in 10.0 mi SW 21.9 mph 26.5 mph N/A   Clear
10:15 AM 62.6 °F 51.8 °F 68% 29.95 in 10.0 mi SW 21.9 mph 27.6 mph N/A   Clear
10:35 AM 64.4 °F 53.6 °F 68% 29.95 in 10.0 mi SW 18.4 mph 26.5 mph N/A   Clear
10:55 AM 64.4 °F 53.6 °F 68% 29.96 in 10.0 mi SSW 18.4 mph - N/A   Clear
11:15 AM 66.2 °F 53.6 °F 64% 29.96 in 10.0 mi SSW 16.1 mph - N/A   Clear
11:35 AM 68.0 °F 53.6 °F 60% 29.96 in 10.0 mi SSW 16.1 mph 19.6 mph N/A   Clear
11:55 AM 68.0 °F 53.6 °F 60% 29.95 in 10.0 mi SSW 13.8 mph 21.9 mph N/A   Clear
12:15 PM 69.8 °F 55.4 °F 60% 29.95 in 10.0 mi SSW 15.0 mph - N/A   Clear
12:35 PM 69.8 °F 55.4 °F 60% 29.94 in 10.0 mi SSW 15.0 mph - N/A   Clear
12:55 PM 69.8 °F 55.4 °F 60% 29.93 in 10.0 mi South 18.4 mph 25.3 mph N/A   Clear
1:15 PM 69.8 °F 55.4 °F 60% 29.93 in 10.0 mi SSW 17.3 mph 23.0 mph N/A   Clear
1:35 PM 71.6 °F 53.6 °F 53% 29.92 in 10.0 mi SW 15.0 mph - N/A   Clear
1:55 PM 71.6 °F 53.6 °F 53% 29.92 in 10.0 mi SW 16.1 mph 24.2 mph N/A   Clear
2:15 PM 71.6 °F 53.6 °F 53% 29.91 in 10.0 mi SW 16.1 mph 23.0 mph N/A   Clear
2:35 PM 73.4 °F 53.6 °F 50% 29.90 in 10.0 mi SW 17.3 mph 24.2 mph N/A   Clear
2:55 PM 73.4 °F 53.6 °F 50% 29.88 in 10.0 mi SSW 16.1 mph 24.2 mph N/A   Clear
3:15 PM 73.4 °F 53.6 °F 50% 29.87 in 10.0 mi SSW 17.3 mph 23.0 mph N/A   Clear
3:35 PM 73.4 °F 53.6 °F 50% 29.87 in 10.0 mi SSW 17.3 mph 20.7 mph N/A   Clear
3:55 PM 73.4 °F 53.6 °F 50% 29.87 in 10.0 mi SSW 15.0 mph 20.7 mph N/A   Clear
4:15 PM 73.4 °F 53.6 °F 50% 29.86 in 10.0 mi South 13.8 mph 20.7 mph N/A   Clear
4:35 PM 75.2 °F 53.6 °F 47% 29.86 in 10.0 mi SSW 13.8 mph 17.3 mph N/A   Clear
4:55 PM 73.4 °F 53.6 °F 50% 29.85 in 10.0 mi SSW 13.8 mph - N/A   Clear
5:15 PM 73.4 °F 53.6 °F 50% 29.85 in 10.0 mi SSW 16.1 mph 20.7 mph N/A   Clear
5:35 PM 73.4 °F 53.6 °F 50% 29.84 in 10.0 mi South 15.0 mph - N/A   Clear
5:55 PM 73.4 °F 53.6 °F 50% 29.84 in 10.0 mi SSW 15.0 mph 18.4 mph N/A   Clear
6:15 PM 73.4 °F 53.6 °F 50% 29.84 in 10.0 mi South 15.0 mph - N/A   Clear
6:35 PM 71.6 °F 51.8 °F 50% 29.84 in 10.0 mi South 11.5 mph - N/A   Clear
6:55 PM 71.6 °F 51.8 °F 50% 29.84 in 10.0 mi South 11.5 mph 17.3 mph N/A   Clear
7:15 PM 69.8 °F 51.8 °F 53% 29.85 in 10.0 mi South 10.4 mph - N/A   Clear
7:35 PM 69.8 °F 51.8 °F 53% 29.85 in 10.0 mi South 11.5 mph - N/A   Clear
7:55 PM 68.0 °F 51.8 °F 56% 29.85 in 10.0 mi South 9.2 mph - N/A   Clear
8:15 PM 64.4 °F 51.8 °F 64% 29.86 in 10.0 mi South 9.2 mph - N/A   Clear
8:35 PM 62.6 °F 51.8 °F 68% 29.86 in 10.0 mi South 9.2 mph - N/A   Clear
8:55 PM 62.6 °F 51.8 °F 68% 29.87 in 10.0 mi South 9.2 mph - N/A   Clear
9:35 PM 60.8 °F 51.8 °F 72% 29.88 in 10.0 mi SE 6.9 mph - N/A   Clear
9:55 PM 60.8 °F 51.8 °F 72% 29.89 in 10.0 mi SSE 6.9 mph - N/A   Clear
10:15 PM 59.0 °F 51.8 °F 77% 29.88 in 10.0 mi South 10.4 mph - N/A   Clear
10:35 PM 60.8 °F 51.8 °F 72% 29.88 in 10.0 mi South 9.2 mph - N/A   Clear
10:55 PM 64.4 °F 51.8 °F 64% 29.88 in 10.0 mi South 12.7 mph - N/A   Clear
11:15 PM 64.4 °F 50.0 °F 59% 29.88 in 10.0 mi South 13.8 mph - N/A   Clear
11:35 PM 64.4 °F 50.0 °F 59% 29.88 in 10.0 mi SSW 12.7 mph - N/A   Clear
11:55 PM 62.6 °F 50.0 °F 63% 29.87 in 10.0 mi SSW 12.7 mph - N/A   Clear